Location: GMARS
(34.2910°N, 116.3838°W)
Time: 08:35:18
(UTC-07:00)

Daily predictions for brighter satellites

Satellite Brightness Start Highest point End
(mag) Time Altitude Azimuth Time Altitude Azimuth Time Altitude Azimuth
H-2A R/B 3.8 19:46:06 10° S 19:49:42 48° W 19:53:23 10° NNW
ATLAS CENTAUR R/B 4.2 19:47:40 10° W 19:50:22 19° NW 19:53:10 10° N
Cosmos 2098 Rocket 4.3 19:49:30 10° SE 19:52:27 18° E 19:55:02 10° NE
BREEZE-M DEB (TANK) 3.2 19:47:14 10° NW 19:52:48 78° NNE 19:56:15 10° ESE
Hubble Space Telescope 2.5 19:50:07 10° SSW 19:52:48 17° SSE 19:55:29 10° ESE
OAO 3 Copernicus 4.3 19:48:20 10° W 19:53:23 88° SSE 19:58:26 10° E
FREGAT/IRIS 2.6 19:50:43 10° S 19:53:37 81° WSW 19:56:35 10° NNW
FengYun 1-2 T 4.5 19:48:05 10° S 19:53:41 79° WSW 19:59:22 10° NNW
Sich 1 3.3 19:52:08 10° N 19:56:23 71° W 20:00:37 10° S
Cosmos 1666 Rocket 3.8 19:54:43 10° N 19:59:10 75° W 20:03:34 10° S
YAOGAN 6 3.7 19:58:54 10° SE 20:01:59 27° ENE 20:05:06 10° NNE
Resurs 01 Rocket 2.7 20:00:10 10° SE 20:03:51 26° ENE 20:07:33 10° NNE
Cosmos 1933 Rocket 4.1 20:01:03 10° N 20:05:08 38° E 20:09:09 10° SSE
Thor Agena Rocket 3.6 20:02:10 10° NNE 20:07:23 61° ESE 20:12:36 10° S
ERS-2 2.4 20:06:42 10° SSE 20:10:12 46° ENE 20:13:44 10° N
SL-16 R/B 2.3 20:10:31 10° S 20:16:01 55° ESE 20:21:31 10° NNE
Resurs 1-3 3.9 20:20:31 12° SE 20:24:25 46° ENE 20:28:37 10° N
Cosmos 1633 Rocket 4.4 20:22:20 10° NNW 20:26:26 42° W 20:30:32 10° SSW
Cosmos 407 Rocket 4.1 20:23:34 10° N 20:28:19 37° ENE 20:31:26 19° SE
USA 186 0.8 20:32:12 25° S 20:33:20 87° WSW 20:35:40 10° NNW
Cosmos 2218 Rocket 4.0 20:32:10 10° S 20:38:31 85° E 20:44:57 10° N
SJ-11-01 4.3 20:36:02 17° SSE 20:39:30 58° ENE 20:44:05 10° N
Cosmos 2366 rocket 3.9 20:36:30 10° S 20:42:42 82° E 20:49:01 10° N
Cosmos 1603 4.5 20:41:18 20° SE 20:43:53 28° ESE 20:48:36 10° NE
Envisat 4.0 20:39:02 10° S 20:43:54 47° W 20:48:48 10° NNW
Cosmos 1441 Rocket 3.3 20:42:21 21° SSE 20:44:35 49° E 20:48:13 10° NNE
SL-08 R/B 4.5 20:40:34 10° S 20:46:53 78° E 20:53:20 10° N
SL-8 Rocket 4.4 20:42:34 10° SSW 20:48:49 65° W 20:55:03 10° N
Cosmos 2369 Rocket 4.3 20:49:52 10° NE 20:51:20 11° NE 20:52:45 10° ENE
Cosmos 2297 3.8 20:49:46 10° NNW 20:55:25 62° ENE 20:58:14 30° SE
Cosmos 1869 4.5 20:54:50 10° SSW 20:58:40 44° W 21:02:31 10° N
Cosmos 1339 Rocket 4.4 20:53:42 10° N 20:59:50 78° E 21:04:26 19° S
ATLAS 5 CENTAUR R/B 4.3 20:57:52 10° N 21:01:12 15° NE 21:03:41 12° ENE
USA 81 4.1 20:56:03 10° N 21:01:13 55° E 21:03:20 33° SE
H-2A R/B 3.1 21:01:59 25° ENE 21:02:27 25° ENE 21:06:27 10° NNE
Cosmos 1452 Rocket 3.4 21:00:18 10° S 21:05:30 73° ESE 21:10:45 10° NNE
Gblst 52 Del rocket 4.4 21:00:04 10° SW 21:05:46 71° NW 21:11:15 10° NE
Sakura Rocket 4.2 21:01:41 10° WSW 21:06:17 29° SSW 21:07:06 27° S
Cosmos 2344 3.5 20:59:31 10° SSW 21:07:14 80° ESE 21:15:12 10° NNE
Cosmos 1140 Rocket 3.8 21:03:32 10° N 21:08:29 45° ENE 21:09:30 40° ESE
Cosmos 1825 4.0 21:10:06 10° NNW 21:13:24 29° W 21:16:31 11° SSW
ASTRO E2 2.9 21:09:46 10° W 21:13:37 51° S 21:13:37 51° S
Cosmos 1933 3.4 21:15:16 57° ENE 21:15:16 57° ENE 21:19:01 10° NNE
NOAA 11 4.3 21:15:32 26° S 21:18:42 75° WSW 21:24:13 10° NNW
OAO 3 Rocket 3.0 21:15:23 10° WSW 21:20:06 67° SSE 21:20:29 64° SE
Cosmos 2278 Rocket 4.0 21:15:54 10° NW 21:20:33 27° WSW 21:25:13 10° SSW
Cosmos 405 Rocket 3.3 21:18:31 23° SSW 21:20:43 55° W 21:24:35 10° N
Cosmos 1190 Rocket 4.5 21:19:46 10° NNW 21:24:54 56° WSW 21:27:16 30° SSW
Spot 2 Rocket 4.2 21:23:07 23° SSW 21:26:07 52° W 21:31:04 10° NNW
Cosmos 405 4.0 21:22:56 10° NNW 21:26:14 40° W 21:26:44 38° WSW
Cosmos 1934 Rocket 4.3 21:26:19 41° E 21:26:22 41° E 21:31:57 10° NNE
MetOp-B 4.2 21:28:31 52° E 21:29:05 55° ENE 21:34:16 10° N
Hubble Space Telescope 2.7 21:29:49 10° WSW 21:31:22 20° SW 21:31:22 20° SW
Cosmos 1174 4.3 21:28:12 10° SSW 21:34:18 66° ENE 21:38:16 10° NNE
Cosmos 1954 Rocket 3.8 21:30:01 10° NNW 21:35:14 86° ENE 21:35:50 70° SSE
CZ-4C R/B 2.7 21:31:12 10° SW 21:36:07 56° NW 21:41:43 10° NNE
ARGOS 3.0 21:36:49 66° SE 21:37:30 77° ENE 21:42:52 10° N
OAO 3 Copernicus 4.1 21:32:58 10° W 21:38:01 86° N 21:38:17 80° ENE
Resurs 01 Rocket 3.7 21:37:12 12° SW 21:40:15 23° W 21:43:44 10° NW
Cosmos 614 Rocket 3.9 21:38:09 10° NNW 21:43:22 79° WSW 21:43:51 71° SSW
Cosmos 1437 Rocket 4.4 21:40:51 10° N 21:42:47 26° NNE 21:42:47 26° NNE
Cosmos 1943 Rocket 3.7 21:40:39 10° N 21:44:20 21° NE 21:44:20 21° NE
Meteor 1-26 Rocket 4.0 21:48:21 73° E 21:48:21 73° E 21:53:45 10° NNE
ERS-1 Rocket 3.1 21:49:43 63° NE 21:49:43 63° NE 21:54:13 10° N
SPOT 5 4.1 21:51:43 27° NNE 21:51:43 27° NNE 21:54:09 10° N
Lacrosse 5 3.3 21:46:22 10° NNW 21:50:34 27° NE 21:50:34 27° NE
NOSS 3-4 (A) 4.4 21:45:40 10° NW 21:52:40 53° WSW 21:55:25 37° SSW
NOSS 3-4 (C) 4.3 21:45:46 10° NW 21:52:47 54° WSW 21:55:29 37° SSW
Centaur D-1A AC-31 2.7 21:46:11 10° WSW 21:53:54 36° SSW 21:53:54 36° SSW
Cosmos 1000 Rocket 4.4 21:51:36 10° N 21:57:51 84° W 21:58:46 67° S
Cosmos 1821 Rocket 4.2 21:59:32 41° SSW 22:01:49 68° W 22:08:05 10° N
Meteor 2-17 Rocket 4.4 22:17:39 79° NNW 22:17:39 79° NNW 22:23:26 10° N
BREEZE-M DEB (TANK) 4.5 21:51:24 10° WNW 22:17:21 60° NNE 22:19:16 48° ENE
ATLAS 2A CENTAUR R/B 3.7 21:58:11 10° WSW 22:17:27 61° S 22:19:02 56° SSE
Cosmos 1943 3.7 22:26:38 58° NNW 22:26:38 58° NNW 22:31:33 10° NNE
Cosmos 2123 Rocket 4.1 22:19:47 10° N 22:25:25 73° NNW 22:25:25 73° NNW
Cosmos 2369 Rocket 2.9 22:30:29 10° NNW 22:34:34 49° NNW 22:34:34 49° NNW
H-2A R/B 3.6 22:42:36 28° WNW 22:42:36 28° WNW 22:46:02 10° NW
Terra 3.7 22:45:22 25° N 22:45:22 25° N 22:47:22 10° N
ATLAS 5 CENTAUR R/B 3.0 22:40:32 10° NNW 22:45:14 56° NNW 22:45:14 56° NNW
Cosmos 1943 Rocket 4.1 23:23:30 10° NW 23:25:52 24° NW 23:25:52 24° NW
USA 267 4.1 23:32:38 10° NNE 23:37:42 44° N 23:37:42 44° N
